CST,Max TemperatureF,Mean TemperatureF,Min TemperatureF,Max Dew PointF,MeanDew PointF,Min DewpointF,Max Humidity, Mean Humidity, Min Humidity, Max Sea Level PressureIn, Mean Sea Level PressureIn, Min Sea Level PressureIn, Max VisibilityMiles, Mean VisibilityMiles, Min VisibilityMiles, Max Wind SpeedMPH, Mean Wind SpeedMPH, Max Gust SpeedMPH,PrecipitationIn, CloudCover, Events, WindDirDegrees
2013-1-1,20,10,1,13,7,-2,87,81,68,30.31,30.22,30.09,10,10,10,10,6,,0.00,0,,235
2013-1-2,34,22,10,30,21,6,86,82,76,30.23,30.09,30.03,10,10,10,13,7,,0.00,5,,277
2013-1-3,31,23,15,27,18,12,89,81,73,30.41,30.33,30.23,10,10,7,21,9,25,0.00,6,,281
2013-1-4,30,19,8,20,13,6,90,79,60,30.30,30.20,30.12,10,10,10,10,5,,0.00,0,,192
2013-1-5,34,22,10,24,16,7,93,80,65,30.22,30.07,30.00,10,10,7,18,8,24,0.00,1,,252
2013-1-6,30,18,7,23,16,5,90,81,70,30.31,30.23,30.10,10,10,7,14,7,20,0.00,1,,190
2013-1-7,37,26,16,28,23,14,95,78,67,30.09,30.00,29.94,10,8,0,21,9,22,0.00,0,Fog,204
2013-1-8,36,24,11,32,20,9,96,86,72,30.13,29.92,29.83,10,6,0,18,4,24,0.00,3,Fog,224
2013-1-9,37,28,18,30,26,16,93,83,71,30.42,30.31,30.13,10,10,5,10,4,13,0.00,0,,179
2013-1-10,37,30,24,35,31,23,97,91,68,30.30,29.96,29.67,10,5,0,12,5,,0.04,6,Fog-Rain,144
2013-1-11,44,36,25,43,35,16,97,94,70,29.75,29.52,29.37,10,4,0,31,8,40,0.00,6,Fog,181
2013-1-12,24,18,11,17,9,4,76,67,58,30.14,30.03,29.77,10,10,10,25,16,32,0.00,2,Snow,307
2013-1-13,21,14,6,7,5,2,80,69,51,30.33,30.22,30.12,10,10,7,16,9,22,0.00,1,,301
2013-1-14,27,16,6,13,8,2,84,71,51,30.45,30.37,30.33,10,10,10,12,4,,0.00,1,,221
2013-1-15,33,21,9,21,15,6,87,75,57,30.34,30.21,30.04,10,10,10,17,5,18,0.00,0,,201
2013-1-16,50,35,20,32,27,16,90,72,47,30.24,30.01,29.90,10,10,10,16,9,21,0.00,2,,284
2013-1-17,36,31,26,33,29,24,98,94,89,30.46,30.37,30.25,10,4,0,9,4,,0.00,5,Fog,163
2013-1-18,46,35,24,33,30,23,95,73,58,30.25,30.01,29.87,10,9,4,22,10,31,0.00,0,,215
2013-1-19,52,38,23,33,28,12,88,65,46,30.36,30.04,29.85,10,10,10,24,9,32,0.00,0,,311
2013-1-20,22,18,13,13,10,6,86,69,54,30.41,30.37,30.32,10,10,10,16,10,21,0.00,3,Snow,3
2013-1-21,16,12,7,12,0,-6,82,57,46,30.45,30.39,30.34,10,10,10,18,10,24,0.00,7,Snow,349
2013-1-22,24,18,11,12,9,1,88,76,58,30.37,30.29,30.23,10,8,2,9,4,16,0.00,4,Snow,127
2013-1-23,29,19,9,20,12,4,88,77,64,30.49,30.28,30.14,10,10,10,18,8,23,0.00,0,,3
2013-1-24,19,11,3,8,0,-5,74,60,47,30.54,30.37,30.16,10,10,10,15,10,17,0.00,3,,109
2013-1-25,48,30,13,30,19,6,87,67,40,30.24,30.16,30.10,10,10,10,14,5,17,0.00,0,,339
2013-1-26,52,36,19,29,23,16,91,70,35,30.24,30.12,29.98,10,10,10,18,9,21,0.00,0,,130
2013-1-27,41,38,35,40,36,27,97,91,63,29.97,29.80,29.68,10,3,0,15,10,20,0.04,8,Fog-Rain,149
2013-1-28,41,38,34,40,37,34,97,97,96,29.85,29.73,29.55,2,0,0,10,4,,0.00,8,Fog,90
2013-1-29,38,35,32,38,32,29,97,91,83,29.70,29.65,29.59,10,7,1,25,14,32,0.00,8,Snow,341
2013-1-30,31,22,14,29,17,10,93,78,62,29.93,29.82,29.67,10,8,0,30,20,39,0.00,7,Snow,325
2013-1-31,16,8,0,9,-1,-6,77,66,53,30.41,30.20,29.94,10,10,10,31,13,41,0.00,3,,324